Weather past 2 weeks in Saint-Pierre, Saint Pierre and Miquelon

Now
33 °F

Chilly.


Feels Like: 25 °F
Forecast: 33 / 38 °F
Wind: 8 mph from Northeast

Location: Saint-Pierre

Current Time: Apr 21, 2015 at 2:03:15 AM

Latest Report: Apr 21, 2015 at 12:00 AM


Visibility: 13 mi

Pressure: 30.41 "Hg

Humidity: 77%

Dew point: 26 °F

Location of Saint-PierreLocation

Historic Weather in Saint-Pierre — Graph

°F

Saint-Pierre temperature yesterday

Maximum temperature yesterday: 44 °F (at 3:00 PM)
Minimum temperature yesterday: 27 °F (at 7:00 AM)
Average temperature yesterday: 35 °F

Past Weeks' High & Low Weather Summary

 TemperatureHumidityPressure
High44 °F (Apr 20, 3:00 PM)100% (Apr 6, 4:00 AM)30.60 "Hg (Apr 6, 4:00 AM)
Low15 °F (Apr 9, 6:00 AM)36% (Apr 20, 2:00 PM)29.38 "Hg (Apr 11, 5:00 PM)
Average32 °F76%30.09 "Hg
* Reported Midnight between Apr 5 and Apr 6 — Midnight between Apr 20 and Apr 21, Saint-Pierre, Weather by CustomWeather, © 2015

Note: Actual official high and low records may vary slightly from our data, if they occured in-between our weather recording intervals... More about our weather records

Advertising

Saint-Pierre weather history for previous 24 hours

 ConditionsComfort  
Time TempWeatherWind HumidityBarometerVisibility
12:00 AM
Tue, Apr 21
33 °FChilly.8 mph77%30.41 "Hg12 mi
11:00 PM
Mon, Apr 20
35 °FChilly.10 mph60%30.42 "Hg12 mi
10:00 PM35 °FChilly.12 mph62%30.39 "Hg12 mi
9:00 PM35 °FChilly.9 mph70%30.38 "Hg12 mi
8:00 PM38 °FChilly.12 mph63%30.34 "Hg12 mi
7:00 PM40 °FPassing clouds.17 mph55%30.32 "Hg31 mi
6:00 PM42 °FSunny.18 mph41%30.30 "Hg31 mi
5:00 PM43 °FSunny.16 mph40%30.29 "Hg31 mi
4:00 PM43 °FSunny.18 mph42%30.30 "Hg31 mi
3:00 PM44 °FQuite cool.16 mph36%30.29 "Hg12 mi
2:00 PM42 °FSunny.12 mph36%30.29 "Hg19 mi
12:00 PM40 °FSunny.13 mph40%30.29 "Hg19 mi
11:00 AM39 °FSunny.12 mph39%30.29 "Hg12 mi
10:00 AM37 °FSunny.12 mph41%30.28 "Hg12 mi
9:00 AM35 °FPassing clouds.10 mph58%30.27 "Hg12 mi
8:00 AM31 °FPassing clouds.7 mph82%30.25 "Hg12 mi
7:00 AM27 °FPassing clouds.6 mph86%30.22 "Hg12 mi
6:00 AM29 °FOvercast.5 mph91%30.21 "Hg12 mi
5:00 AM29 °FChilly.8 mph93%30.19 "Hg12 mi
4:00 AM29 °FChilly.9 mph93%30.16 "Hg12 mi
3:00 AM29 °FChilly.9 mph90%30.15 "Hg12 mi
2:00 AM30 °FOvercast.10 mph86%30.16 "Hg12 mi
Weather by CustomWeather, © 2015

See weather overviewHow to use our weather pages